Regional Weather Roundup
Issued by NWS Midland/Odessa, TX

Skip options and go directly to product.
Home | Oldest Version | Previous Version | Current Version | All | Graphics & Text | Save Text | Print | Product List | Glossary On

Skip product version selection by date and time.   
130
ASUS44 KMAF 250210
RWRMAF
MIDLAND AREA WEATHER ROUNDUP
NATIONAL WEATHER SERVICE MIDLAND TX
800 PM CST WED DEC 24 2014

...IN SOUTHWEST TEXAS AND SOUTHEAST NEW MEXICO...

CITY           SKY/WX    TMP DP  RH WIND       PRES   REMARKS
ALPINE         PTCLDY    41  18  39 SW15G21   30.09F WCI  33
ANDREWS        FAIR      38  24  55 SW9       29.98S WCI  32
ARTESIA        CLEAR     37  18  44 S12       29.94S WCI  30
BIG SPRING     CLEAR     38  24  56 SE9       30.03F WCI  32
CARLSBAD       CLEAR     36  25  64 W8        29.94S WCI  30
DRYDEN           N/A     41  21  44 SW7       30.04F WCI  36
FORT STOCKTON  CLEAR     38  27  64 S10       30.02F WCI  31
GUAD PASS      NOT AVBL
HOBBS          PTCLDY    32  23  69 CALM      29.96S
MARFA          PTCLDY    30  16  55 SW6       30.08F WCI  24
MIDLAND AIRPK  CLEAR     42  24  50 S6        30.00F WCI  38
MIDLAND INTL   CLEAR     41  24  51 S8        29.99F WCI  36
ODESSA         CLEAR     40  23  50 S9        29.99F WCI  34
PECOS          CLEAR     40  24  52 SW8       30.00F WCI  35
PRESIDIO       FAIR      42  19  40 N7        30.07F WCI  37
SEMINOLE       CLEAR     33  26  74 CALM      29.97S
SNYDER         CLEAR     36  23  60 S9        30.01S WCI  29
WINK           CLEAR     40  23  50 S8        29.98F WCI  34
$$
...OTHER STATIONS IN TEXAS...

CITY           SKY/WX    TMP DP  RH WIND       PRES   REMARKS
ABILENE        CLEAR     39  23  52 S7        30.03F WCI  34
AMARILLO       CLEAR     32  14  47 SW12      29.84F WCI  23
AUSTIN         CLEAR     41  32  70 W3        30.12R
BROWNSVILLE    CLEAR     51  33  50 N5        30.18S
CORPUS CHRISTI CLEAR     48  31  51 CALM      30.16R
DALLAS FTW     CLEAR     43  29  57 SW7       30.05R WCI  39
DEL RIO        CLEAR     47  24  40 NE5       30.08F
EL PASO        PTCLDY    43   8  23 SW6       30.04S WCI  39
HOUSTON INT    CLEAR     43  38  82 CALM      30.11R
LUBBOCK        CLEAR     40  21  46 SW13      29.92F WCI  32
SAN ANGELO     CLEAR     38  26  62 S6        30.06F WCI  33
SAN ANTONIO    CLEAR     45  30  55 NW6       30.12R
WACO           CLEAR     35  30  82 W6        30.08R WCI  30
WICHITA FALLS  NOT AVBL
$$
...OTHER LOCATIONS IN NEW MEXICO...

CITY           SKY/WX    TMP DP  RH WIND       PRES   REMARKS
ALAMAGORDO     PTCLDY    32   9  37 SE5       30.04F WCI  27
ALBUQUERQUE    MOCLDY    32  12  43 S3        29.98F
CANNON AFB     PTCLDY    30  18  59 SW12      29.89S WCI  21
CLOVIS         PTCLDY    28  16  59 SW10      29.89R WCI  19
HOLLOMAN AFB   PTCLDY    34  13  41 SE7       30.02F WCI  28
ROSWELL        CLEAR     36  19  50 SE6       29.92S WCI  31
RUIDOSO        CLEAR     28   7  40 SW9       29.98F WCI  20
SANTA FE       MOCLDY    27  13  55 E5        29.94F WCI  22
TRUTH OR CONSE MOCLDY    41   6  23 S8        30.00S WCI  36
TUCUMCARI      CLEAR     38  17  42 S13       29.80F WCI  30
$$

USA.gov is the U.S. government's official web portal to all federal, state and local government web resources and services.